Voltar ao catálogo

STARLINK-34078

AtivoComunicaçõesVLEO
NORAD 64012·PAYLOAD·🇺🇸 United States

Lançado May 14, 2025 de Cape Canaveral Space Force Station

Loading…

Próximas Passagens (próximas 24 horas)

TLE

AtualizadoSource: CelesTrak SupGP

Época: Sep 14, 2026, 22:30 UTC

1 64012C 25101U   26257.93798611 -.00014252  00000+0 -51623-3 0  2570
2 64012  43.0038   8.9128 0001468 271.9548   9.5505 15.27583954    10

Acompanhe STARLINK-34078 em tempo real com AllMySat

Download on the App Store